Theta_e
361 356 351 344 318 315 309 312 319 319 321 329 333 329 327 329 322 313 340 347 349 350 353 357 361 360 361 360 360 359 362 363 365 366 366 366 364 364 364 364 364 363 362 361 361 360 359 359 358
357 350 346 334 311 305 307 318 316 321 327 333 333 332 329 325 336 337 339 351 352 353 353 355 362 362 363 363 364 365 364 363 367 367 367 366 365 364 364 363 362 361 361 360 360 359 358 357 356
354 350 333 320 309 306 307 318 321 328 332 332 330 335 332 329 337 339 346 353 355 353 355 358 363 364 363 364 365 366 366 364 365 365 364 364 363 363 363 361 360 360 360 360 359 358 357 357 356
345 336 325 306 307 315 316 320 325 327 331 334 333 328 337 341 340 345 352 354 354 354 357 361 364 363 363 364 365 364 364 364 365 364 363 362 362 362 362 360 360 359 359 359 358 357 357 357 357
336 322 306 307 312 320 323 324 327 325 330 331 333 328 332 342 347 350 352 353 351 353 358 359 364 364 365 365 365 365 363 362 364 364 362 362 362 362 361 360 359 358 358 358 357 357 357 356 356
319 315 307 305 313 321 324 326 327 330 332 332 330 330 332 343 344 349 351 351 355 354 356 359 363 365 365 363 363 364 364 364 364 363 363 363 362 361 361 359 358 357 357 357 357 359 359 359 358
317 311 307 308 314 318 323 329 328 329 330 329 335 327 335 339 346 349 350 353 355 357 355 356 358 361 363 366 363 363 363 362 363 364 364 363 362 361 360 360 359 358 358 359 360 360 361 359 359
320 311 307 309 314 314 326 330 331 329 329 338 338 326 328 339 347 348 350 350 353 355 355 355 355 357 358 359 362 362 362 362 363 364 363 362 361 360 360 361 359 359 359 359 361 361 360 361 359
323 308 306 310 313 315 328 327 333 337 332 334 337 335 340 346 348 345 346 349 351 354 354 355 355 355 357 358 358 363 362 361 362 362 362 363 357 357 359 358 357 358 358 360 360 362 361 359 357
317 308 310 316 317 319 324 329 329 328 328 330 333 341 345 346 344 342 341 341 344 348 353 354 354 355 356 360 357 357 356 358 358 358 356 357 357 355 356 351 357 357 359 358 361 362 361 357 355
319 312 318 318 319 326 323 327 329 326 324 330 330 337 342 343 342 341 341 342 343 347 351 354 354 355 356 356 355 356 355 355 356 355 355 354 355 352 352 353 352 350 353 354 355 355 356 354 353
315 321 320 320 324 322 324 326 327 329 327 335 336 340 342 340 340 340 341 343 345 348 350 353 354 354 354 355 355 354 354 354 353 353 353 351 350 350 349 347 350 350 351 351 351 349 351 352 351
311 316 320 325 322 323 326 323 326 328 333 338 338 340 339 340 341 342 344 344 344 345 348 350 352 353 353 352 354 354 354 354 352 352 352 351 350 350 350 347 350 350 351 348 351 351 351 349 350
316 318 321 322 321 321 321 323 326 328 337 337 337 337 339 340 341 342 343 343 344 345 347 348 350 352 351 351 351 353 352 353 353 353 353 352 351 351 349 348 349 347 352 351 351 350 350 350 349
321 317 320 319 318 319 325 318 320 331 336 335 336 338 340 341 342 342 344 343 345 346 348 347 349 351 350 351 351 351 352 353 352 351 352 352 351 350 352 348 348 348 349 349 349 348 347 347 347
315 314 309 317 318 321 320 311 323 334 333 333 336 337 339 340 342 344 345 344 346 346 345 349 351 350 350 350 350 350 351 352 349 350 350 351 352 352 350 349 347 348 348 348 348 347 347 345 344
307 305 308 314 320 319 318 313 324 333 333 332 335 336 338 338 340 343 345 345 345 346 346 347 351 350 350 350 350 351 353 351 351 351 351 351 352 353 351 350 346 349 348 347 347 346 345 342 342
304 307 307 311 318 319 316 315 323 327 330 330 332 335 336 336 337 341 342 345 345 345 346 348 350 351 349 349 350 351 351 351 352 351 351 352 353 354 350 349 349 350 345 343 342 341 341 341 341
309 311 311 313 319 316 315 315 321 324 325 325 326 329 332 332 335 339 340 342 342 344 345 347 347 348 347 347 346 347 347 349 349 349 352 351 352 352 349 349 346 345 341 340 339 338 338 337 338
310 308 310 312 317 316 315 315 320 324 324 325 325 326 328 330 329 333 337 338 340 343 345 346 347 347 348 348 347 347 347 347 348 349 350 352 351 351 347 345 345 342 338 338 338 337 334 335 337
303 308 306 311 315 317 315 312 314 321 324 325 326 328 329 328 327 330 334 336 338 341 343 345 347 347 349 348 346 347 348 346 344 343 347 350 350 350 349 346 342 340 337 336 337 336 334 331 334
297 305 310 310 310 304 314 299 310 316 319 322 324 326 327 329 330 330 333 335 337 339 343 345 346 347 349 348 346 345 343 342 342 339 340 341 345 344 345 341 340 337 336 336 336 336 335 333 330
303 306 307 310 308 306 307 302 306 316 314 318 322 324 327 329 330 331 333 335 338 340 340 342 343 345 348 348 348 345 341 340 335 334 333 335 336 337 339 339 337 336 336 335 336 334 334 334 332
307 301 299 299 301 296 305 305 302 308 316 320 323 326 327 329 331 333 335 336 337 340 341 342 342 344 346 347 347 345 342 334 332 330 328 328 330 335 338 339 338 335 334 335 334 334 333 333 332
300 295 290 291 293 293 301 303 308 310 318 322 322 325 328 331 331 332 333 335 337 338 340 342 342 342 346 346 346 346 343 334 333 330 327 327 328 333 335 336 333 333 334 334 333 333 332 332 332
297 296 290 286 287 294 299 300 307 317 318 322 324 325 328 328 332 333 334 335 336 339 340 341 342 343 345 346 345 343 339 333 331 330 327 329 330 333 334 333 334 332 332 333 334 333 332 332 332
296 293 297 290 287 289 293 298 306 309 311 315 318 322 323 326 332 333 335 336 337 338 340 341 342 344 345 346 344 336 334 328 328 328 328 329 331 333 333 333 334 333 333 334 334 332 332 332 331
299 299 293 289 286 285 290 293 296 303 307 311 313 320 322 325 330 333 336 337 338 339 341 343 344 344 344 344 339 335 330 328 327 328 329 328 329 332 333 332 333 334 333 334 332 331 332 331 330
295 293 292 292 290 287 286 291 300 304 306 309 313 319 321 323 327 332 336 338 339 340 341 342 344 344 343 341 337 333 329 328 328 329 331 330 330 331 332 333 332 332 332 333 331 331 331 330 330
299 296 295 293 288 289 289 292 305 306 308 312 315 319 319 322 326 331 335 337 339 339 340 341 344 345 345 341 337 333 330 330 330 330 331 331 331 331 332 332 332 332 333 333 331 331 331 330 329
Wind_Speed
11 4 3 3 2 5 3 3 2 4 2 1 3 4 9 7 2 5 2 5 9 6 5 10 14 15 16 16 18 18 16 16 16 14 14 13 12 12 11 10 9 7 7 7 8 7 7 5 4
8 5 4 2 3 4 2 3 6 2 4 7 8 6 8 6 5 8 5 5 7 7 6 6 13 16 18 18 18 17 17 17 15 14 13 12 12 11 10 8 8 6 5 5 6 6 5 3 3
11 4 2 1 3 1 1 3 8 9 7 3 5 5 4 3 6 4 8 9 8 6 5 8 14 14 16 16 17 16 15 15 14 13 12 12 10 10 8 7 6 5 4 5 4 4 3 3 4
4 2 2 4 3 2 1 7 11 8 4 7 9 7 6 7 3 6 11 9 9 6 6 12 15 15 15 15 15 15 14 13 12 11 11 10 9 8 7 5 4 3 4 4 3 3 3 4 4
1 2 3 4 4 4 5 5 7 5 5 7 2 6 6 3 13 13 10 9 7 5 6 9 14 14 14 14 14 13 12 12 11 11 10 9 9 7 6 4 3 2 1 1 2 4 5 4 4
1 1 5 3 2 3 4 6 4 7 8 8 8 6 3 9 13 10 9 7 6 5 5 5 12 13 13 14 13 13 13 12 12 11 10 9 8 6 4 2 1 0 2 3 4 6 7 7 6
3 3 4 4 3 1 2 5 4 4 9 6 8 5 7 7 10 10 8 6 6 5 5 5 5 9 13 11 12 12 11 11 11 10 9 8 6 5 4 4 4 3 4 6 7 7 7 7 6
4 5 4 2 5 3 4 3 5 6 3 8 9 6 10 8 12 10 8 6 5 5 5 5 5 5 5 5 11 10 9 9 9 9 8 7 6 6 5 5 4 6 6 7 8 7 6 5 6
4 6 3 7 8 5 6 4 4 5 10 3 4 5 10 17 14 11 8 5 5 5 4 4 4 4 5 4 5 9 10 9 8 7 8 6 3 4 4 4 6 8 8 8 9 7 7 7 6
3 5 10 8 7 8 10 8 6 5 8 4 8 15 16 16 14 14 12 11 11 8 8 5 5 5 5 4 4 4 3 3 3 3 3 2 3 3 4 5 9 9 8 7 8 7 7 6 3
0 5 6 6 9 15 8 8 2 12 3 6 19 20 18 16 13 13 12 13 13 11 9 7 6 6 6 4 3 2 2 2 2 3 4 3 2 2 3 2 2 3 5 2 3 4 2 2 2
2 4 6 6 8 11 13 8 6 7 5 9 17 20 17 17 14 13 12 12 11 10 11 7 6 6 5 3 3 3 3 2 2 3 5 3 2 3 3 2 3 2 2 3 2 1 3 3 3
4 3 4 7 8 9 11 6 4 6 10 14 17 17 18 15 15 12 10 8 8 9 8 7 6 5 4 4 3 3 4 4 3 4 4 4 4 4 2 3 2 2 2 1 2 1 2 3 4
1 5 8 7 7 5 8 4 8 5 14 15 17 17 16 15 16 10 8 8 9 10 11 8 9 7 6 6 6 5 4 5 4 5 6 7 5 4 1 3 3 2 2 2 1 2 2 2 2
8 7 8 4 4 4 10 2 7 11 17 18 17 15 15 14 12 15 14 13 13 11 10 11 11 9 9 9 7 5 5 5 5 5 5 5 5 5 5 3 3 3 2 3 2 2 1 2 2
6 6 6 4 6 7 7 6 4 14 18 18 16 14 14 14 15 13 11 11 11 10 12 12 10 10 9 8 7 5 4 4 4 4 3 5 5 6 3 4 3 2 2 2 1 1 1 1 2
6 6 4 5 7 7 3 4 8 15 16 16 16 15 15 13 13 14 14 13 12 13 11 10 11 11 12 8 5 4 4 3 3 3 3 3 5 5 4 3 3 3 2 1 0 0 1 1 2
6 7 1 6 7 8 6 5 12 15 15 17 16 15 15 14 17 16 14 14 12 11 10 9 9 9 7 3 3 1 2 3 3 3 3 4 3 2 3 3 4 3 3 1 1 2 1 1 2
8 8 13 3 1 2 6 4 15 16 14 14 15 15 15 15 16 15 14 13 11 9 9 10 8 7 6 2 3 2 3 3 3 3 5 4 4 4 4 3 4 3 3 2 1 1 1 0 1
9 8 11 1 4 2 1 4 9 15 19 17 16 14 16 16 8 10 12 11 13 14 13 11 12 8 8 4 3 3 3 3 2 3 4 5 5 5 5 5 4 4 3 3 1 1 0 1 2
7 18 8 18 7 3 5 4 8 10 11 10 13 14 13 14 11 11 12 13 13 12 13 13 13 12 10 9 4 2 2 1 1 2 2 3 5 5 5 5 5 4 3 3 2 1 1 1 1
7 8 14 11 12 9 8 6 8 14 16 15 18 16 16 14 11 11 14 14 14 15 12 13 12 12 10 11 8 6 5 4 3 3 2 3 4 5 5 6 5 5 3 3 2 2 2 2 1
9 9 10 12 10 6 2 2 8 13 13 22 21 21 19 19 17 16 17 18 18 14 13 12 11 11 10 11 11 8 4 3 2 2 4 3 3 5 5 6 6 5 3 3 4 3 2 1 2
10 8 8 6 4 1 10 10 6 8 23 25 17 22 21 20 18 18 17 15 13 12 12 12 12 12 11 11 11 11 9 7 4 3 4 3 2 2 4 4 4 4 4 4 3 3 3 3 2
6 8 2 3 1 7 6 5 14 11 15 24 22 23 21 20 19 17 16 16 16 16 16 13 14 15 12 13 12 11 10 8 9 7 5 5 3 2 5 5 5 3 4 4 4 4 3 3 3
7 10 8 7 7 6 3 10 16 22 16 13 12 14 14 17 19 19 19 19 18 18 16 15 14 15 13 12 11 8 8 5 5 6 4 4 4 4 6 5 4 5 5 4 4 2 3 3 4
5 5 7 9 2 3 5 9 8 7 9 9 16 10 17 19 21 22 20 20 19 18 19 19 16 15 12 13 11 10 9 9 8 7 6 5 4 4 6 6 5 5 4 4 4 3 4 4 4
9 9 4 3 5 5 5 4 7 5 11 11 8 16 19 17 17 18 19 20 19 20 19 16 17 17 13 13 11 11 11 10 8 7 8 6 5 4 5 5 5 5 5 5 4 3 3 3 4
3 3 6 6 5 8 5 8 10 11 12 12 15 18 17 18 19 20 18 19 20 17 16 16 16 16 14 14 12 11 10 10 9 9 8 7 6 6 6 5 5 5 5 4 4 4 4 5 5
11 11 10 7 6 3 5 9 5 11 8 6 12 13 8 12 15 17 17 18 17 18 16 18 17 17 16 14 13 12 11 12 10 10 8 7 7 5 6 6 6 5 5 4 5 5 4 5 5
Wind_Direction
162 115 65 29 22 71 100 133 121 114 100 21 62 79 99 43 49 152 93 125 123 137 159 153 146 137 137 141 143 142 132 127 130 133 129 128 126 123 119 114 112 110 99 104 94 81 69 62 64
138 124 32 360 61 54 309 110 101 83 127 131 85 83 49 71 59 108 98 127 113 121 123 127 144 143 138 139 137 136 132 132 132 132 128 128 126 121 115 108 101 99 108 93 82 70 64 36 30
159 172 99 95 85 65 138 91 119 121 138 93 115 65 66 65 93 113 118 120 101 105 124 149 147 138 135 134 133 136 135 136 131 131 133 128 123 114 110 109 118 121 109 82 69 57 31 14 12
168 322 345 71 68 359 43 122 125 128 108 62 111 65 75 118 117 119 124 117 113 121 133 149 146 143 139 136 132 137 135 132 128 130 129 127 125 120 121 130 121 120 75 65 45 10 7 1 353
78 78 47 65 18 357 54 101 130 112 74 87 39 87 85 33 108 118 125 124 122 122 132 146 146 146 143 138 134 133 136 133 133 133 134 137 137 135 138 131 140 100 51 23 349 326 334 335 320
100 126 57 89 21 20 36 99 107 90 105 112 87 90 72 130 121 126 125 125 127 126 118 137 146 143 142 142 137 137 139 141 143 143 147 148 141 142 138 170 195 293 298 301 317 313 313 307 302
156 88 125 112 96 17 188 130 105 122 135 114 130 96 123 148 132 126 127 121 117 113 119 123 132 154 152 148 146 150 146 148 152 152 155 152 151 158 199 215 241 255 284 298 302 301 298 299 301
138 95 101 110 165 222 170 80 130 124 79 111 141 154 162 169 137 122 122 116 119 126 132 137 145 143 142 159 161 162 157 161 162 166 165 169 184 202 225 251 298 288 290 300 298 307 306 302 316
119 71 147 168 153 204 151 126 166 98 136 167 148 136 136 143 132 126 127 132 134 152 152 149 154 148 147 143 181 181 180 180 183 185 186 198 207 240 250 276 281 287 295 299 312 310 310 317 339
135 113 196 177 170 165 158 143 158 128 162 75 95 109 133 141 144 149 161 168 177 181 187 175 167 167 161 165 178 167 189 177 181 197 228 215 231 255 244 251 277 260 269 275 292 296 306 347 351
8 159 172 181 169 151 154 144 165 139 217 201 154 148 151 152 157 164 176 181 184 182 191 184 176 174 171 178 171 172 184 186 200 215 232 246 252 274 291 281 294 310 303 309 312 329 350 337 342
101 190 161 153 164 140 162 133 125 171 234 141 151 151 152 161 169 176 179 177 178 185 193 181 179 180 184 168 177 178 185 199 205 219 225 225 240 245 255 266 266 268 301 311 326 339 321 329 334
210 150 134 117 121 119 124 147 156 210 129 132 146 156 166 172 177 186 183 178 173 183 191 189 175 187 184 192 189 193 206 203 208 211 223 212 230 248 251 257 269 256 259 263 306 299 324 328 326
86 136 113 83 113 93 121 147 122 189 137 146 159 171 175 178 185 174 169 175 186 188 194 185 190 188 178 197 201 207 203 207 210 219 222 216 214 235 243 255 234 250 242 255 265 288 295 301 307
127 94 69 100 131 112 108 172 216 152 152 161 173 180 183 191 182 191 186 185 186 196 183 188 191 189 192 204 211 210 213 206 212 226 229 225 206 211 221 212 227 238 251 277 260 263 278 298 331
94 70 107 220 151 174 116 238 196 160 156 173 182 186 193 192 193 200 199 198 190 186 191 191 189 192 196 204 209 213 209 216 233 236 232 221 222 215 211 197 216 194 201 228 236 313 299 301 315
21 151 145 166 209 146 161 231 172 170 170 177 186 193 196 196 207 206 199 194 188 194 192 195 195 189 198 208 202 207 216 215 228 242 255 254 224 210 206 171 219 180 171 151 166 205 325 329 329
171 126 155 192 199 164 175 243 168 177 178 183 193 198 200 199 209 205 205 200 187 192 193 194 193 201 195 163 149 190 256 242 227 232 234 244 239 171 175 176 161 144 100 100 62 47 18 328 329
150 157 186 121 26 11 202 188 181 188 192 194 197 202 204 208 212 206 199 196 186 180 182 187 184 192 162 156 160 176 208 191 211 217 216 212 204 171 159 160 126 126 129 161 128 116 93 75 347
166 152 202 133 146 152 287 278 198 199 205 203 200 205 205 212 191 189 191 185 186 185 189 184 196 183 190 176 165 164 172 196 176 188 208 203 204 184 167 156 143 142 137 163 117 112 114 319 18
177 187 170 210 145 140 135 301 193 219 216 219 226 224 216 209 194 189 180 189 186 189 188 190 195 193 194 182 131 126 110 98 149 203 207 199 184 176 163 147 144 148 149 157 168 168 145 205 313
160 198 192 148 152 204 159 255 227 202 212 218 221 218 217 213 202 195 193 190 189 199 194 195 194 196 197 179 178 175 179 170 209 191 197 169 149 141 151 150 151 155 153 163 184 162 171 150 218
211 162 158 171 171 119 213 83 266 174 218 227 222 217 212 210 203 195 197 196 198 191 191 195 194 200 193 188 193 186 171 172 161 165 161 156 138 154 163 164 158 156 163 178 170 166 176 174 159
147 93 58 49 101 181 209 180 251 194 214 227 219 218 211 206 203 202 199 193 197 193 194 195 193 204 192 190 190 186 180 175 166 173 177 178 155 179 182 168 162 161 168 169 172 189 190 194 181
86 83 35 51 61 211 209 190 233 219 228 221 212 211 208 201 199 198 185 190 192 189 199 195 195 206 198 193 188 188 185 179 186 178 183 163 158 182 200 172 175 168 176 183 173 176 188 200 195
181 155 154 185 181 207 121 210 242 232 235 241 238 217 204 199 199 196 190 193 194 195 199 201 201 207 193 189 192 180 168 175 190 178 166 183 188 185 169 180 177 181 183 183 186 183 209 208 219
185 157 187 107 41 96 200 281 305 238 254 223 229 182 200 201 198 196 192 195 194 195 200 199 199 204 192 194 184 179 175 165 185 181 181 186 183 187 174 181 181 193 185 197 187 197 213 208 221
160 169 97 354 149 220 266 270 233 241 240 241 230 212 207 198 195 198 197 195 199 200 200 197 200 201 193 189 185 181 177 183 169 168 188 185 186 189 172 184 189 198 207 197 191 213 224 225 236
118 160 60 119 131 170 196 255 213 210 210 221 238 224 203 194 194 195 195 198 201 201 199 199 196 194 192 183 179 175 180 176 171 179 187 175 172 185 184 185 202 207 219 210 208 227 240 236 249
180 182 167 182 228 224 168 254 222 221 240 223 228 216 189 196 197 195 193 194 195 200 198 201 198 196 196 187 182 181 176 173 180 180 181 169 178 171 175 188 205 216 227 226 221 229 237 238 246